Location: Hodgeman County State Park
(38.0472°N, 99.8282°W)
Time: 07:20:27
(UTC+00:00)

Daily predictions for brighter satellites

Satellite Brightness Start Highest point End
(mag) Time Altitude Azimuth Time Altitude Azimuth Time Altitude Azimuth
Cosmos 841 Rocket 3.8 12:01:53 10° S 12:06:57 66° ESE 12:12:03 10° NNE
Cosmos 1898 Rocket 3.5 12:04:49 16° NNW 12:09:01 81° ENE 12:14:11 10° SSE
FALCON 9 R/B 3.2 12:08:09 19° SW 12:09:40 21° SSW 12:12:21 10° SSE
Cosmos 2237 Rocket 2.4 12:05:09 10° SSW 12:10:46 74° ESE 12:16:27 10° NNE
Cosmos 2333 Rocket 3.0 12:13:27 29° NW 12:13:27 29° NW 12:17:46 10° N
deb Chang Zheng 4 3.5 12:09:21 10° N 12:13:31 57° WNW 12:17:39 10° SSW
GPS 2-04 Rocket1 3.5 12:13:17 34° SW 12:14:08 39° SSW 12:18:01 10° SE
ATLAS CENTAUR R/B 4.1 12:11:48 10° SSE 12:14:26 18° ESE 12:17:02 10° ENE
Cosmos 1570 Rocket 4.4 12:11:15 10° S 12:16:24 66° ESE 12:21:36 10° NNE
Cosmos 2219 Rocket 2.9 12:17:17 30° WNW 12:17:17 30° WNW 12:22:07 10° N
Cosmos 2034 Rocket 4.0 12:11:52 10° S 12:18:14 87° E 12:24:39 10° N
YAOGAN 6 2.9 12:19:47 10° NNE 12:23:28 70° E 12:27:09 10° S
Cosmos 1953 2.1 12:19:45 10° S 12:23:44 78° W 12:27:43 10° N
FALCON 9 DEB 3.1 12:25:36 46° W 12:26:17 57° NW 12:29:39 10° NE
Nadezhda 4 Rocket 3.9 12:25:38 10° N 12:31:46 90° W 12:37:53 10° S
PSLV R/B 3.8 12:28:02 10° S 12:32:06 73° WSW 12:36:14 10° NNW
COSMOS 2428 3.5 12:30:54 24° W 12:32:38 28° WNW 12:37:30 10° N
Cosmos 1461 3.7 12:30:57 24° WSW 12:33:02 37° NW 12:37:27 10° NNE
Cosmos 1892 Rocket 4.1 12:31:18 22° NW 12:33:29 35° W 12:37:29 10° SSW
Cosmos 2208 Rocket 4.2 12:29:51 10° SSW 12:35:17 81° ESE 12:40:45 10° NNE
GEOS 3 Rocket 3.7 12:30:11 10° SSE 12:35:29 71° WSW 12:40:17 13° NW
ERS-2 2.5 12:32:11 10° S 12:35:39 41° W 12:37:40 21° NW
Cosmos 1908 3.1 12:32:13 10° S 12:35:59 87° W 12:39:49 10° N
Meteor PRIRODA 4.2 12:35:22 10° N 12:38:37 32° WNW 12:41:51 10° SW
CENTAUR R/B 4.5 12:34:25 10° S 12:39:13 30° ESE 12:44:40 10° NE
USA 305 4.4 12:36:27 10° SSW 12:40:21 37° SE 12:44:16 10° ENE
Cosmos 1814 Rocket 3.9 12:37:41 10° SSW 12:42:49 78° WNW 12:47:58 10° NNE
Cosmos 1980 3.8 12:37:55 10° SW 12:43:27 55° WNW 12:49:01 10° NNE
COSMO-SKYMED 1 3.5 12:41:01 10° SSW 12:44:42 27° W 12:47:20 16° NW
Cosmos 921 Rocket 4.1 12:43:59 21° W 12:44:49 22° WNW 12:48:10 10° NNW
Cosmos 1937 Rocket 3.5 12:39:36 10° NNW 12:44:50 66° WSW 12:50:00 10° S
Cosmos 372 Rocket 4.4 12:43:56 10° NNW 12:49:11 68° ENE 12:54:23 10° SSE
Envisat 3.0 12:44:23 10° N 12:49:25 63° WNW 12:54:25 10° SSW
NOAA 6 4.0 12:46:09 10° NNE 12:51:21 85° WNW 12:56:32 10° SSW
SJ 16-02 3.2 12:52:17 13° WSW 12:52:17 13° WSW 12:53:43 10° WSW
Meteor 2-13 Rocket 4.5 12:45:46 10° NNW 12:51:50 61° W 12:57:51 10° S
USA 306 4.0 12:48:00 10° SSW 12:52:05 47° SE 12:56:10 10° ENE
SWAS 4.5 12:48:06 10° SSW 12:52:21 85° ESE 12:56:38 10° NNE
CZ-4B DEB 4.2 12:55:15 10° N 13:00:49 72° WNW 13:06:20 10° SSW
CZ-4B R/B 4.2 13:00:33 10° NNW 13:02:44 15° WNW 13:04:56 10° WSW
CZ-2C R/B 2.2 13:00:02 10° WSW 13:03:55 43° S 13:07:33 10° E
IUS R/B (1) 4.4 13:05:21 10° S 13:06:01 11° SSE 13:06:44 10° SSE
USA 276 4.3 13:05:16 10° WSW 13:06:46 13° SW 13:08:24 10° SSW
Cosmos 2026 Rocket 4.2 13:02:39 10° N 13:09:02 83° E 13:15:25 10° S
Lacrosse 4 Rocket 1.3 13:07:01 10° SSW 13:11:11 76° WNW 13:15:30 10° NNE
Cosmos 1703 3.5 13:08:00 10° NNW 13:11:44 46° W 13:15:28 10° SSW
Cosmos 1340 2.9 13:11:30 10° NNW 13:15:08 46° W 13:18:43 10° SSW
Cosmos 1346 Rocket 3.4 13:12:33 10° N 13:16:30 61° E 13:20:25 10° SSE
Cosmos 1606 Rocket 3.9 13:13:01 10° S 13:17:17 69° E 13:21:35 10° NNE
Cosmos 540 Rocket 4.4 13:14:13 10° WSW 13:18:22 25° WNW 13:22:33 10° N
Cosmos 1689 Rocket 4.0 13:17:29 10° SW 13:18:59 13° W 13:20:27 10° WNW
Lacrosse 5 rocket 1.9 13:16:40 10° NNW 13:20:22 47° NE 13:23:55 10° ESE
Cosmos 1939 Rocket 3.3 13:18:29 10° NNE 13:22:24 64° E 13:26:14 10° S
BREEZE M DEB (TANK) 2.2 13:21:04 10° W 13:23:10 40° NNW 13:26:57 10° NE
Cosmos 44 Rocket 3.9 13:21:08 10° NW 13:26:06 45° WSW 13:30:59 10° S
